Tracking 19720 objects as of 27-Jun-2019
HD Live streaming from Space Station
objects crossing your sky now

H-2A R/B

Track H-2A R/B now!
10-day predictions


NORAD ID: 42073
Int'l Code: 2017-015B
Perigee: 486.9 km
Apogee: 498.4 km
Inclination: 97.1 °
Period: 94.3 minutes
Semi major axis: 6863 km
RCS: Unknown
Launch date: March 17, 2017
Source: Japan (JPN)
Launch site: TANEGASHIMA SPACE CENTER (TNSTA)

Note: This is a ROCKET BODY
aabbcc
Your satellite tracking list
Your tracking list is empty




NASA's NSSDC Master Catalog

Two Line Element Set (TLE):
1 42073U 17015B   19169.11550806 0.00001000  00000-0  38048-4 0    03
2 42073  97.0905 215.0187 0008388 327.9237  32.0762 15.26767874    05
Source of the keplerian elements: McCants